Location: Luxembourg
(49.6117°N, 6.1300°E)
Time: 04:23:36
(UTC+01:00)

ISS - Pass Details

Date: 07 December 2021
Orbit: 413 x 422 km, 51.6° (Epoch: 22 January)

Event Time Altitude Azimuth Distance (km) Brightness Sun altitude
Rises 18:41:07 0° 283° (WNW) 2,383 1.2 -19.3°
Reaches altitude 10° 18:43:54 10° 258° (WSW) 1,511 0.3 -19.7°
Maximum altitude 18:45:53 15° 222° (SW) 1,246 -0.7 -20.0°
Drops below altitude 10° 18:47:51 10° 186° (S) 1,501 -0.7 -20.3°
Enters shadow 18:49:49 - 167° (SSE) 2,085 -0.2 -20.7°
